EW3511 Weather Reports


Display with metric or nautical units.
time (UTC)temp
F
wind
direction
speed
MPH
gust
MPH
rain 1hr
in
rain 24hr
in
rain mn
in
humidity
%
barometer
mb
20260506223547 49 235 2.0 6.0 0.00 0.01 0.00 94 1009.4
20260506222547 49 142 1.0 5.0 0.00 0.01 0.00 96 1009.5
20260506221548 49 135 2.0 6.0 0.00 0.02 0.00 96 1009.4
20260506220548 49 193 1.0 6.0 0.00 0.02 0.00 96 1009.3
20260506215549 49 126 0.0 1.0 0.00 0.02 0.02 96 1009.3
20260506214550 49 147 1.0 3.0 0.00 0.02 0.02 96 1009.2
20260506213550 49 123 1.0 3.0 0.00 0.03 0.02 95 1009.2
20260506212550 49 97 0.0 1.0 0.00 0.03 0.02 95 1009.0
20260506211550 49 102 1.0 5.0 0.00 0.03 0.02 94 1009.0
20260506210551 49 139 1.0 5.0 0.00 0.04 0.02 94 1009.2
20260506205551 49 181 2.0 6.0 0.00 0.04 0.02 94 1009.2
20260506204552 50 171 1.0 8.0 0.00 0.04 0.02 93 1009.0
20260506203552 49 199 2.0 6.0 0.00 0.04 0.02 94 1008.9
20260506202552 49 165 1.0 3.0 0.00 0.04 0.02 94 1008.6
20260506201613 50 171 1.0 3.0 0.00 0.04 0.02 93 1008.6
20260506200554 50 162 1.0 5.0 0.00 0.04 0.02 92 1008.8
20260506195553 50 220 2.0 5.0 0.00 0.04 0.02 93 1008.6
20260506194554 50 125 2.0 7.0 0.00 0.04 0.02 93 1008.4
20260506193554 50 177 3.0 8.0 0.00 0.04 0.02 93 1008.3
20260506192555 50 197 2.0 6.0 0.00 0.04 0.02 94 1008.1
20260506191555 50 184 2.0 6.0 0.00 0.04 0.02 94 1008.0
20260506190555 50 170 1.0 5.0 0.00 0.04 0.02 93 1007.8
20260506185557 50 128 1.0 6.0 0.00 0.04 0.02 93 1007.6
20260506184556 50 292 3.0 10.0 0.00 0.04 0.02 94 1007.4
20260506183637 50 153 1.0 5.0 0.00 0.04 0.02 95 1007.3
20260506182618 50 199 2.0 7.0 0.01 0.04 0.02 95 1007.1
20260506181558 50 140 1.0 3.0 0.01 0.04 0.02 96 1007.0
20260506180558 50 100 1.0 6.0 0.01 0.04 0.02 95 1006.9
20260506175559 51 4 3.0 11.0 0.01 0.04 0.02 95 1006.8
20260506174620 52 268 4.0 13.0 0.01 0.04 0.02 98 1006.7
20260506173620 53 209 2.0 7.0 0.01 0.04 0.02 99 1006.2
20260506172600 53 222 2.0 7.0 0.00 0.03 0.01 99 1005.7
20260506171601 53 71 0.0 1.0 0.00 0.03 0.01 99 1005.5
20260506170601 53 137 0.0 1.0 0.00 0.03 0.01 99 1005.1
20260506165601 53 145 1.0 3.0 0.00 0.03 0.01 99 1004.9
20260506164603 53 183 1.0 3.0 0.00 0.03 0.01 99 1004.9
20260506061600 55 0.0 1.0 0.00 0.03 0.01 90 1006.4
20260506060558 54 70 0.0 2.0 0.00 0.03 0.01 91 1006.4
20260506050600 50 0.0 0.0 0.00 0.03 0.01 99 1006.9
20260506044533 48 0.0 0.0 0.00 0.03 0.01 99 1006.5
20260506043553 48 75 0.0 1.0 0.00 0.03 0.01 99 1006.5
20260506042534 48 108 0.0 1.0 0.00 0.03 0.01 99 1006.7
20260506041536 48 0.0 0.0 0.00 0.03 0.01 99 1006.8
20260506040614 48 124 0.0 1.0 0.00 0.03 0.01 99 1006.8
20260506035536 48 60 0.0 1.0 0.00 0.03 0.01 99 1006.8
20260506034535 49 0.0 0.0 0.00 0.03 0.01 99 1006.8
20260506033536 49 0.0 0.0 0.00 0.03 0.01 99 1006.8
20260506032557 49 0.0 0.0 0.00 0.03 0.01 99 1007.0
20260506031931 49 0.0 0.0 0.00 0.03 0.01 99 1007.2
20260506030538 49 0.0 0.0 0.00 0.03 0.01 99 1007.4
20260506025539 49 0.0 0.0 0.00 0.03 0.01 99 1007.5
20260506024539 49 0.0 0.0 0.00 0.03 0.01 99 1007.7
20260506023539 49 0.0 0.0 0.00 0.03 0.01 99 1007.7
20260506022559 49 0.0 0.0 0.00 0.03 0.01 99 1007.6
20260506021538 49 0.0 0.0 0.00 0.03 0.01 99 1007.5
20260506020538 49 0.0 0.0 0.00 0.03 0.01 99 1007.4
20260506015538 49 0.0 0.0 0.00 0.03 0.01 99 1007.6
20260506014540 49 0.0 0.0 0.00 0.03 0.01 99 1007.6
20260506013539 49 0.0 0.0 0.00 0.03 0.01 99 1007.8
20260506012540 49 0.0 0.0 0.00 0.03 0.01 99 1007.9
20260506011600 49 0.0 0.0 0.00 0.03 0.01 99 1007.8
20260506010541 50 0.0 0.0 0.00 0.03 0.01 99 1007.7
20260506005541 50 0.0 0.0 0.00 0.03 0.01 99 1007.6
20260506004541 51 0.0 0.0 0.00 0.03 0.01 99 1007.8
20260506003542 51 0.0 0.0 0.00 0.03 0.01 99 1007.9
20260506002602 52 0.0 0.0 0.00 0.03 0.01 99 1007.8
20260506001603 52 0.0 0.0 0.00 0.03 0.01 99 1008.0
20260506000543 52 0.0 0.0 0.00 0.03 0.01 98 1008.1
20260505235603 52 0.0 1.0 0.00 0.03 0.01 98 1008.1
20260505234545 52 0.0 0.0 0.00 0.03 0.01 98 1008.1
20260505233545 52 0.0 0.0 0.00 0.03 0.01 98 1008.3
20260505232545 52 125 0.0 2.0 0.00 0.03 0.01 97 1008.3
20260505231545 52 0.0 1.0 0.01 0.03 0.01 96 1008.4
20260505230546 52 151 0.0 2.0 0.01 0.03 0.01 96 1008.3
20260505225547 53 132 0.0 2.0 0.01 0.03 0.01 96 1008.3
20260505224546 53 179 1.0 5.0 0.01 0.03 0.01 96 1008.3